User: anonymous   Login
Location: Melara
(45.0500°N, 11.1833°E)
Time: 06:43:01
(UTC+00:00)
Language:

Meteor 1-29 - Orbit

View from above orbital plane
View from above orbital plane
View from above satellite
View from above satellite

Ground track
Ground track

The orbit data is extracted from the following two-line orbital elements,

1 11251U 79005A   22228.43872364  .00007717  00000-0  16332-3 0  9994
2 11251  97.7334 202.8684 0013882 163.7067 196.4630 15.45340012929708
Epoch (UTC): 16 August 2022 10:31:45
Eccentricity: 0.0013882
inclination: 97.7334°
perigee height: 421 km
apogee height: 440 km
right ascension of ascending node: 202.8684°
argument of perigee: 163.7067°
revolutions per day: 15.45340012
mean anomaly at epoch: 196.4630°
orbit number at epoch: 92970

The dashed part of the orbit path shows where the satellite is in the earth's shadow,  

DLR